�������l�o���
Date,Time,MP-1(��Sv/h),MP-2(��Sv/h),MP-3(��Sv/h),MP-4(��Sv/h),MP-5(��Sv/h),MP-6(��Sv/h),MP-7(��Sv/h),MP-8(��Sv/h),����,����(m/s),���J
2020/02/25,00:00,0.699,1.000,0.660,1.234,0.882,0.403,0.701,0.665,�k,4.0,��
2020/02/25,00:10,0.698,1.001,0.661,1.233,0.881,0.403,0.700,0.665,�k,2.3,��
2020/02/25,00:20,0.700,1.002,0.658,1.233,0.881,0.403,0.700,0.665,�k�k��,1.8,�L
2020/02/25,00:30,0.700,1.000,0.660,1.232,0.881,0.403,0.702,0.665,�k��,1.2,��
2020/02/25,00:40,0.698,1.001,0.659,1.235,0.881,0.402,0.699,0.665,���k��,1.2,��
2020/02/25,00:50,0.700,1.002,0.658,1.234,0.881,0.403,0.701,0.665,���k��,3.0,��
2020/02/25,01:00,0.699,1.001,0.659,1.233,0.881,0.402,0.701,0.665,���k��,2.6,��
2020/02/25,01:10,0.701,1.001,0.659,1.233,0.881,0.403,0.702,0.665,��,2.0,��
2020/02/25,01:20,0.699,0.998,0.660,1.234,0.880,0.403,0.701,0.665,���k��,3.6,��
2020/02/25,01:30,0.700,1.000,0.659,1.235,0.879,0.403,0.701,0.664,��,3.0,��
2020/02/25,01:40,0.701,1.001,0.658,1.233,0.880,0.403,0.702,0.665,��,3.3,��
2020/02/25,01:50,0.700,1.001,0.658,1.234,0.880,0.403,0.700,0.665,��,2.0,��
2020/02/25,02:00,0.701,1.001,0.660,1.233,0.880,0.403,0.700,0.665,��,2.0,��
2020/02/25,02:10,0.697,1.000,0.659,1.234,0.879,0.403,0.701,0.665,�k�k��,2.3,��
2020/02/25,02:20,0.699,0.999,0.658,1.235,0.881,0.403,0.701,0.664,�k��,2.3,��
2020/02/25,02:30,0.699,1.001,0.660,1.233,0.880,0.401,0.701,0.664,�k��,2.0,��
2020/02/25,02:40,0.698,1.000,0.659,1.233,0.880,0.402,0.700,0.665,���k��,0.9,��
2020/02/25,02:50,0.700,0.999,0.658,1.233,0.879,0.402,0.699,0.664,���k��,0.6,��
2020/02/25,03:00,0.700,1.001,0.659,1.235,0.877,0.403,0.700,0.663,���k��,0.8,��
2020/02/25,03:10,0.700,1.000,0.658,1.233,0.880,0.403,0.702,0.664,�k�k��,1.1,��
2020/02/25,03:20,0.698,0.999,0.660,1.234,0.880,0.400,0.700,0.665,�k�k��,1.2,��
2020/02/25,03:30,0.699,0.998,0.658,1.234,0.879,0.402,0.702,0.665,�k�k��,1.8,��
2020/02/25,03:40,0.701,0.999,0.659,1.235,0.878,0.403,0.700,0.665,�k�k��,1.2,��
2020/02/25,03:50,0.699,0.999,0.658,1.234,0.879,0.402,0.702,0.665,�k��,1.1,��
2020/02/25,04:00,0.699,1.000,0.660,1.233,0.881,0.401,0.699,0.665,�k��,1.5,��
2020/02/25,04:10,0.698,1.001,0.659,1.236,0.880,0.401,0.702,0.665,�k��,2.0,��
2020/02/25,04:20,0.698,0.998,0.658,1.232,0.881,0.401,0.700,0.663,�k��,2.3,��
2020/02/25,04:30,0.698,1.000,0.659,1.234,0.879,0.402,0.702,0.663,�k��,1.2,��
2020/02/25,04:40,0.699,1.001,0.658,1.233,0.879,0.402,0.700,0.664,-,CALM,��
2020/02/25,04:50,0.700,1.001,0.658,1.233,0.879,0.400,0.700,0.666,-,CALM,��
2020/02/25,05:00,0.698,0.998,0.658,1.233,0.881,0.402,0.700,0.664,-,CALM,��
2020/02/25,05:10,0.698,0.998,0.659,1.233,0.877,0.401,0.701,0.664,�k,0.6,��
2020/02/25,05:20,0.697,1.000,0.658,1.234,0.879,0.402,0.700,0.663,���k��,0.8,��
2020/02/25,05:30,0.698,1.000,0.658,1.234,0.879,0.400,0.701,0.664,��,1.7,��
2020/02/25,05:40,0.698,0.999,0.658,1.233,0.880,0.401,0.700,0.663,���k��,2.0,��
2020/02/25,05:50,0.698,0.998,0.659,1.233,0.880,0.400,0.700,0.665,���k��,2.0,��
2020/02/25,06:00,0.698,0.998,0.657,1.234,0.880,0.401,0.700,0.663,���k��,2.2,��
2020/02/25,06:10,0.695,1.002,0.657,1.233,0.880,0.402,0.699,0.662,�k��,2.3,��
2020/02/25,06:20,0.698,1.000,0.659,1.234,0.880,0.400,0.699,0.663,�k��,2.6,��
2020/02/25,06:30,0.696,1.000,0.657,1.234,0.878,0.400,0.701,0.665,���k��,2.9,��
2020/02/25,06:40,0.696,1.000,0.657,1.232,0.877,0.402,0.699,0.665,�k��,2.2,��
2020/02/25,06:50,0.701,0.998,0.657,1.232,0.880,0.400,0.699,0.663,�k��,3.2,��
2020/02/25,07:00,0.696,0.998,0.658,1.232,0.878,0.400,0.699,0.665,�k��,3.6,��
2020/02/25,07:10,0.697,0.997,0.658,1.234,0.879,0.402,0.700,0.664,�k��,3.7,��
2020/02/25,07:20,0.696,0.999,0.657,1.231,0.879,0.402,0.700,0.663,�k��,4.3,��
2020/02/25,07:30,0.698,0.997,0.658,1.234,0.880,0.400,0.701,0.664,�k��,3.5,��
2020/02/25,07:40,0.699,1.000,0.657,1.233,0.880,0.401,0.699,0.665,�k��,2.2,��
2020/02/25,07:50,0.698,1.000,0.657,1.234,0.881,0.401,0.702,0.665,�k��,3.2,��
2020/02/25,08:00,0.698,1.000,0.656,1.234,0.878,0.401,0.700,0.663,���k��,2.6,��
2020/02/25,08:10,0.699,1.000,0.659,1.234,0.879,0.400,0.700,0.664,��,2.3,��
2020/02/25,08:20,0.699,0.999,0.658,1.235,0.880,0.402,0.702,0.665,���k��,2.8,��
2020/02/25,08:30,0.698,0.998,0.658,1.233,0.879,0.401,0.701,0.665,���k��,3.3,��
2020/02/25,08:40,0.701,0.996,0.657,1.233,0.878,0.402,0.700,0.666,���k��,2.9,��
2020/02/25,08:50,0.700,0.996,0.657,1.237,0.880,0.401,0.701,0.665,���k��,2.6,��
2020/02/25,09:00,0.699,0.995,0.658,1.234,0.879,0.400,0.701,0.666,���k��,2.3,��
2020/02/25,09:10,0.700,0.998,0.658,1.232,0.879,0.400,0.699,0.665,�k��,1.9,��
2020/02/25,09:20,0.699,0.997,0.656,1.233,0.879,0.399,0.700,0.666,��,0.9,��
2020/02/25,09:30,0.698,0.997,0.658,1.235,0.881,0.400,0.698,0.666,���쓌,1.2,��
2020/02/25,09:40,0.697,0.998,0.655,1.233,0.881,0.399,0.700,0.666,���쓌,2.0,��
2020/02/25,09:50,0.698,0.996,0.641,1.232,0.880,0.401,0.700,0.667,��,1.5,��
2020/02/25,10:00,0.698,0.998,0.649,1.232,0.879,0.400,0.698,0.665,���쓌,1.9,��
2020/02/25,10:10,0.698,0.999,0.658,1.231,0.879,0.395,0.699,0.666,��,2.6,��
2020/02/25,10:20,0.700,0.994,0.658,1.232,0.880,0.396,0.700,0.664,��,2.2,��
2020/02/25,10:30,0.702,0.999,0.658,1.233,0.881,0.398,0.700,0.666,���k��,2.6,��
2020/02/25,10:40,0.700,0.997,0.658,1.231,0.883,0.401,0.698,0.665,��,3.1,��
2020/02/25,10:50,0.700,0.996,0.656,1.230,0.882,0.402,0.699,0.666,���k��,3.3,��
2020/02/25,11:00,0.699,0.999,0.659,1.232,0.878,0.401,0.698,-,��,3.1,��
2020/02/25,11:10,0.701,1.000,0.659,1.234,0.881,0.403,0.700,-,���k��,2.6,��
2020/02/25,11:20,0.700,0.999,0.657,1.232,0.869,0.401,0.698,-,��,2.9,��
2020/02/25,11:30,0.700,0.999,0.658,1.233,0.872,0.401,0.698,-,��,3.0,��
2020/02/25,11:40,0.700,0.997,0.657,1.234,0.879,0.401,0.698,-,���k��,3.5,��
2020/02/25,11:50,0.698,0.995,0.655,1.235,0.880,0.403,0.699,-,��,3.5,��
2020/02/25,12:00,0.701,0.999,0.658,1.234,0.881,0.403,0.699,-,���k��,4.2,��
2020/02/25,12:10,0.701,0.998,0.658,1.235,0.878,0.404,0.699,-,���k��,4.4,��
2020/02/25,12:20,0.700,0.997,0.658,1.234,0.878,0.400,0.699,-,���k��,4.1,��
2020/02/25,12:30,0.699,0.998,0.657,1.236,0.880,0.401,0.698,0.662,���k��,4.4,��
2020/02/25,12:40,0.700,0.999,0.659,1.236,0.879,0.403,0.698,0.662,�k��,3.3,��
2020/02/25,12:50,0.701,0.999,0.657,1.234,0.879,0.402,0.699,0.662,���k��,3.1,��
2020/02/25,13:00,0.699,0.996,0.659,1.234,0.879,0.401,0.699,0.663,��,3.4,��
2020/02/25,13:10,0.700,0.997,0.660,1.234,0.880,0.401,0.700,0.664,���쓌,3.7,��
2020/02/25,13:20,0.701,0.978,0.659,1.236,0.877,0.401,0.699,0.663,���쓌,4.1,��
2020/02/25,13:30,0.700,0.964,0.659,1.235,0.862,0.400,0.699,0.663,���쓌,3.5,��
2020/02/25,13:40,0.700,0.992,0.660,1.234,0.860,0.403,0.700,0.664,�쓌,3.6,��
2020/02/25,13:50,0.700,0.998,0.658,1.236,0.863,0.400,0.700,0.665,�쓌,4.0,�L
2020/02/25,14:00,0.699,0.998,0.659,1.234,0.861,0.401,0.699,0.664,�쓌,5.3,�L
2020/02/25,14:10,0.698,1.002,0.658,1.234,0.863,0.397,0.700,0.665,�쓌,4.4,�L
2020/02/25,14:20,0.700,1.003,0.660,1.235,0.860,0.401,0.701,0.666,�쓌,4.3,�L
2020/02/25,14:30,0.699,1.002,0.660,1.235,0.871,0.402,0.699,0.665,���쓌,4.5,�L
2020/02/25,14:40,0.698,1.000,0.658,1.236,0.881,0.402,0.698,0.667,�쓌,4.2,�L
2020/02/25,14:50,0.699,1.002,0.658,1.234,0.882,0.403,0.699,0.666,���쓌,3.7,�L
2020/02/25,15:00,0.699,0.999,0.660,1.234,0.882,0.402,0.700,0.666,�쓌,4.0,�L
2020/02/25,15:10,0.701,1.003,0.659,1.237,0.882,0.403,0.699,0.665,�쓌,3.9,�L
2020/02/25,15:20,0.700,1.002,0.659,1.236,0.880,0.403,0.699,0.665,�쓌,3.4,�L
2020/02/25,15:30,0.699,1.005,0.661,1.238,0.881,0.402,0.700,0.664,�쓌,2.0,�L
2020/02/25,15:40,0.700,1.003,0.659,1.235,0.880,0.404,0.700,0.664,�쓌,3.1,�L
2020/02/25,15:50,0.699,1.003,0.660,1.234,0.881,0.404,0.700,0.665,�쓌,3.5,�L
2020/02/25,16:00,0.698,1.002,0.659,1.235,0.880,0.403,0.700,0.665,�쓌,2.5,�L
2020/02/25,16:10,0.697,1.001,0.657,1.233,0.879,0.403,0.701,0.664,�쓌,2.0,�L
2020/02/25,16:20,0.695,1.000,0.658,1.235,0.879,0.402,0.699,0.665,�쓌,1.9,�L
2020/02/25,16:30,0.697,0.998,0.658,1.233,0.877,0.403,0.700,0.665,�쓌,2.3,�L
2020/02/25,16:40,0.697,0.996,0.658,1.232,0.876,0.403,0.698,0.664,�쓌,1.7,�L
2020/02/25,16:50,0.696,0.997,0.657,1.233,0.878,0.403,0.699,0.664,��쓌,1.2,�L
2020/02/25,17:00,0.696,0.994,0.657,1.230,0.874,0.402,0.700,0.666,���쓌,2.6,�L
2020/02/25,17:10,0.696,0.995,0.655,1.231,0.875,0.403,0.697,0.664,��쓌,2.3,�L
2020/02/25,17:20,0.696,0.995,0.656,1.230,0.874,0.404,0.698,0.664,��,2.0,�L
2020/02/25,17:30,0.695,0.991,0.658,1.230,0.872,0.404,0.698,0.663,��,2.0,�L
2020/02/25,17:40,0.694,0.991,0.656,1.228,0.872,0.404,0.699,0.663,��쓌,2.0,�L
2020/02/25,17:50,0.693,0.990,0.655,1.230,0.871,0.404,0.696,0.662,��쓌,2.3,�L
2020/02/25,18:00,0.692,0.986,0.656,1.228,0.872,0.403,0.697,0.663,��,2.6,�L
2020/02/25,18:10,0.691,0.985,0.653,1.224,0.868,0.404,0.696,0.660,��쓌,2.8,�L
2020/02/25,18:20,0.692,0.983,0.655,1.224,0.867,0.405,0.694,0.662,��쓌,2.6,�L
2020/02/25,18:30,0.689,0.982,0.651,1.224,0.866,0.403,0.695,0.662,�쓌,1.5,�L
2020/02/25,18:40,0.688,0.978,0.652,1.221,0.864,0.401,0.695,0.661,�쓌,1.5,�L
2020/02/25,18:50,0.688,0.977,0.652,1.218,0.862,0.400,0.695,0.660,��쓌,2.6,�L
2020/02/25,19:00,0.686,0.976,0.650,1.213,0.861,0.401,0.693,0.659,��쓌,2.0,�L
2020/02/25,19:10,0.686,0.973,0.648,1.215,0.858,0.401,0.692,0.660,�쓌,1.1,�L
2020/02/25,19:20,0.686,0.973,0.650,1.211,0.859,0.400,0.692,0.658,��쓌,0.9,�L
2020/02/25,19:30,0.682,0.972,0.648,1.210,0.857,0.400,0.692,0.659,��쐼,0.9,�L
2020/02/25,19:40,0.683,0.971,0.649,1.209,0.856,0.400,0.691,0.659,��,1.1,�L
2020/02/25,19:50,0.682,0.972,0.647,1.207,0.856,0.400,0.691,0.657,-,CALM,�L
2020/02/25,20:00,0.682,0.967,0.645,1.208,0.853,0.399,0.691,0.657,-,CALM,�L
2020/02/25,20:10,0.682,0.969,0.646,1.203,0.853,0.399,0.690,0.657,�k��,0.6,�L
2020/02/25,20:20,0.681,0.967,0.645,1.204,0.853,0.399,0.690,0.657,�k��,0.6,�L
2020/02/25,20:30,0.679,0.966,0.645,1.203,0.853,0.398,0.690,0.657,-,CALM,�L
2020/02/25,20:40,0.682,0.965,0.644,1.202,0.851,0.399,0.689,0.656,�k�k��,0.6,�L
2020/02/25,20:50,0.679,0.964,0.645,1.203,0.852,0.399,0.689,0.657,�k��,0.6,�L
2020/02/25,21:00,0.678,0.965,0.646,1.199,0.850,0.398,0.689,0.659,�k��,0.8,�L
2020/02/25,21:10,0.680,0.963,0.645,1.196,0.849,0.397,0.688,0.656,�k,0.8,�L
2020/02/25,21:20,0.679,0.961,0.644,1.195,0.852,0.397,0.688,0.656,-,CALM,�L
2020/02/25,21:30,0.677,0.962,0.645,1.196,0.852,0.400,0.689,0.656,��,0.8,�L
2020/02/25,21:40,0.678,0.962,0.644,1.195,0.850,0.397,0.688,0.656,��,0.6,�L
2020/02/25,21:50,0.679,0.961,0.645,1.194,0.850,0.399,0.688,0.657,-,CALM,�L
2020/02/25,22:00,0.678,0.961,0.645,1.194,0.849,0.399,0.689,0.656,�쓌,0.6,�L
2020/02/25,22:10,0.678,0.960,0.642,1.193,0.849,0.398,0.688,0.656,-,CALM,�L
2020/02/25,22:20,0.678,0.960,0.642,1.191,0.849,0.397,0.687,0.653,-,CALM,�L
2020/02/25,22:30,0.676,0.960,0.642,1.191,0.846,0.398,0.687,0.655,��쓌,1.1,�L
2020/02/25,22:40,0.677,0.961,0.643,1.190,0.846,0.399,0.687,0.654,��쓌,1.5,�L
2020/02/25,22:50,0.677,0.960,0.642,1.189,0.847,0.400,0.686,0.655,��,0.8,�L
2020/02/25,23:00,0.679,0.959,0.643,1.190,0.848,0.399,0.686,0.655,-,CALM,�L
2020/02/25,23:10,0.678,0.959,0.646,1.191,0.849,0.400,0.687,0.655,-,CALM,�L
2020/02/25,23:20,0.679,0.957,0.644,1.188,0.846,0.399,0.686,0.654,-,CALM,�L
2020/02/25,23:30,0.680,0.961,0.644,1.187,0.845,0.401,0.687,0.656,�쐼,0.9,�L
2020/02/25,23:40,0.678,0.958,0.644,1.185,0.845,0.399,0.686,0.654,���k��,3.7,�L
2020/02/25,23:50,0.680,0.957,0.645,1.185,0.846,0.400,0.686,0.655,�k,0.8,�L
